[Iaude] MPEC L38: 2022 LV [a=1.13,e=0.14,i=1.0,H=26.0]

mpec at marsden.cfa.harvard.edu mpec at marsden.cfa.harvard.edu
Sun Jun 5 22:24:40 EDT 2022


M.P.E.C. 2022-L38                                  Issued 2022 June 6, 02:23 UT

     The Minor Planet Electronic Circulars contain information on unusual
         minor planets and routine data on comets.  They are published
    on behalf of Division F of the International Astronomical Union by the
          Minor Planet Center, Smithsonian Astrophysical Observatory,
                          Cambridge, MA 02138, U.S.A.

             Prepared using the Tamkin Foundation Computer Network

                              MPC at CFA.HARVARD.EDU
            URL https://www.minorplanetcenter.net/    ISSN 1523-6714

                                    2022 LV                                     


Observations:
     K22L00V* C2022 06 04.35346115 41 27.409-26 27 05.97         20.39wUEL038F52
     K22L00V  C2022 06 04.36363015 41 25.441-26 27 01.48         20.07wUEL038F52
     K22L00V  C2022 06 04.37381915 41 23.460-26 26 56.67         20.23wUEL038F52
     K22L00V  C2022 06 04.47892815 41 03.289-26 25 47.00         20.12GVEL038F52
     K22L00V  C2022 06 04.47955815 41 03.176-26 25 46.59         19.85GVEL038F52
     K22L00V ^C2022 06 05.34733415 39 37.857-26 17 49.44         19.93GVEL038568
     K22L00V ^C2022 06 05.34999415 39 37.315-26 17 48.14         20.21GVEL038568
     K22L00V ^C2022 06 05.35096415 39 37.106-26 17 47.61         20.05GVEL038568
     K22L00V KC2022 06 05.98291715 38 28.728-26 08 51.43         19.6 GXEL038Y00
     K22L00V KC2022 06 05.98870515 38 27.622-26 08 49.88         19.5 GXEL038Y00
     K22L00V KC2022 06 05.99545715 38 26.266-26 08 47.47         19.4 GXEL038Y00
     K22L00V |C2022 06 06.01416 15 38 27.27 -26 07 43.4          20.0 VuEL038807
     K22L00V |C2022 06 06.01738 15 38 26.66 -26 07 42.1          20.1 VuEL038807
     K22L00V |C2022 06 06.02061 15 38 26.11 -26 07 41.8          19.6 VuEL038807

Observer details:
568 Mauna Kea.  Observer Y. Ramanjooloo.  Measurers R. Weryk, Y. Ramanjooloo,
    R. Wainscoat.  2.24-m University of Hawaii reflector + CCD.
807 Cerro Tololo Observatory, La Serena.  Observers T. Linder, R. Holmes, L.
    Horn.  0.61-m f/6.5 Dall-Kirkham Astrograph + CCD.
F52 Pan-STARRS 2, Haleakala.  Observers J. Bulger, T. Lowe, A. Schultz, I.
    Smith, K. Chambers, T. Dukes.  Measurers K. Chambers, S. Chastel, T. de
    Boer, J. Fairlamb, H. Gao, M. Huber, C.-C. Lin, E. Magnier, Y.
    Ramanjooloo, R. Wainscoat, R. Weryk.  1.8-m Ritchey-Chretien + CCD.
Y00 SONEAR Observatory, Oliveira.  Observer C. Jacques.  0.45-m f/2.9 0.45-m
    f/2.9 reflector + CCD.

Orbital elements:
2022 LV                                                  Earth MOID = 0.0011 AU
Epoch 2022 Jan. 21.0 TT = JDT 2459600.5                 Veres                   
M 195.69133              (2000.0)            P               Q                  
n   0.81685984     Peri.   52.91643     +0.78883621     +0.61437306             
a   1.1333682      Node   269.17099     -0.56909364     +0.71981125             
e   0.1427358      Incl.    0.96431     -0.23209883     +0.32313697             
P   1.21           H   26.03          G   0.15           U   7                  
Residuals in seconds of arc
220604 F52  0.1-  0.1-    220605 568  0.0   0.0     220605 Y00  0.5+  0.2-
220604 F52  0.0   0.0     220605 568  0.1+  0.0     220606 807  0.1+  0.1-
220604 F52  0.0   0.0     220605 568  0.1-  0.0     220606 807  0.3-  0.3+
220604 F52  0.0   0.1+    220605 Y00  0.4-  0.4+    220606 807  0.2+  0.3-
220604 F52  0.0   0.0     220605 Y00  0.3+  0.1-

Ephemeris:
2022 LV                  a,e,i = 1.13, 0.14, 1                   q = 0.9716
Date    TT    R. A. (2000) Decl.     Delta      r    Elong.  Phase     V
2022 05 07    16 03 11.5 -26 53 06   0.1185  1.1217   161.1    16.9    22.5
...
2022 05 22    15 57 43.1 -27 17 40   0.07517 1.0868   172.9     6.6    21.1
...
2022 05 30    15 49 34.4 -26 59 22   0.05570 1.0686   170.1     9.4    20.5
...
2022 06 05    15 40 14.1 -26 18 43   0.04241 1.0553   163.5    15.8    20.1
2022 06 06    15 38 18.9 -26 08 33   0.04028 1.0531   162.2    17.1    20.1
2022 06 07    15 36 15.6 -25 57 05   0.03817 1.0509   160.9    18.4    20.0
...
2022 06 13    15 19 29.8 -24 05 38   0.02590 1.0383   151.6    27.8    19.4
...
2022 06 21    14 13 32.1 -14 04 44   0.01053 1.0225   126.6    52.9    18.1
...
2022 07 06    04 46 19.2 +33 01 07   0.02175 0.9981    31.0   148.4    25.8

M. P. C. Staff               (C) Copyright 2022 MPC           M.P.E.C. 2022-L38




More information about the Iaude mailing list